EW8735 Weather Reports


time (UTC)temp
C
wind
direction
speed
KPH
gust
KPH
rain 1hr
cm
rain 24hr
cm
rain mn
cm
humidity
%
barometer
mb
20260906154519 12 311 0.0 0.0 0.00 0.00 0.00 75 1013.0
20260906153019 12 311 0.0 0.0 0.00 0.00 0.00 75 1013.0
20260906151512 11 311 0.0 0.0 0.00 0.00 0.00 79 1013.2
20260906150012 11 311 0.0 0.0 0.00 0.00 0.00 81 1013.3
20260906144511 11 311 0.0 0.0 0.00 0.00 0.00 81 1013.5
20260906143010 11 319 0.0 0.0 0.00 0.00 0.00 81 1013.4
20260906141608 11 322 0.0 0.0 0.00 0.00 0.00 82 1013.1
20260906140009 10 4 0.0 0.0 0.00 0.00 0.00 86 1012.5
20260906134506 10 80 0.0 0.0 0.00 0.00 0.00 86 1011.8
20260906133002 10 80 0.0 0.0 0.00 0.00 0.00 86 1011.8
20260906131505 10 80 0.0 0.0 0.00 0.00 0.00 86 1011.8
20260906130113 10 80 0.0 0.0 0.00 0.00 0.00 85 1011.8
20260906124601 10 80 0.0 0.0 0.00 0.00 0.00 84 1011.2
20260906123136 10 80 0.0 0.0 0.00 0.00 0.00 84 1011.3
20260906121558 10 80 0.0 0.0 0.00 0.00 0.00 83 1011.4
20260906120057 10 80 0.0 0.0 0.00 0.00 0.00 83 1011.4
20260906114603 10 80 0.0 0.0 0.00 0.00 0.00 83 1011.4
20260906113055 10 80 0.0 0.0 0.00 0.00 0.00 82 1011.4
20260906111553 10 80 0.0 0.0 0.00 0.00 0.00 81 1011.3
20260906110052 10 80 0.0 0.0 0.00 0.00 0.00 80 1011.4
20260906104551 10 80 0.0 0.0 0.00 0.00 0.00 80 1011.3
20260906103054 11 80 0.0 0.0 0.00 0.00 0.00 79 1011.3
20260906101550 11 80 0.0 0.0 0.00 0.00 0.00 79 1011.3
20260906100049 11 80 0.0 0.0 0.00 0.00 0.00 80 1011.4
20260906094559 11 80 0.0 0.0 0.00 0.00 0.00 81 1011.3
20260906093049 11 80 0.0 0.0 0.00 0.00 0.00 78 1011.3
20260906091600 11 80 0.0 0.0 0.00 0.00 0.00 78 1011.4
20260906090044 11 80 0.0 0.0 0.00 0.00 0.00 78 1011.5
20260906084540 11 80 0.0 0.0 0.00 0.00 0.00 77 1011.6
20260906083038 11 80 0.0 0.0 0.00 0.00 0.00 77 1011.9
20260906081539 12 80 0.0 0.0 0.00 0.00 0.00 77 1011.8
20260906080038 12 80 0.0 0.0 0.00 0.00 0.00 74 1012.1
20260906074531 12 80 0.0 0.0 0.00 0.00 0.00 74 1012.1
20260906073029 13 80 0.0 0.0 0.00 0.00 0.00 74 1012.2
20260906071524 12 80 0.0 0.0 0.00 0.00 0.00 74 1012.5
20260906070022 12 80 0.0 0.0 0.00 0.00 0.00 75 1012.5
20260906064521 12 80 0.0 0.0 0.00 0.00 0.00 75 1012.5
20260906063024 12 80 0.0 0.0 0.00 0.00 0.00 75 1012.6
20260906061524 12 80 0.0 0.0 0.00 0.00 0.00 75 1012.6
20260906060021 12 80 0.0 0.0 0.00 0.00 0.00 74 1012.5
20260906054519 12 80 0.0 0.0 0.00 0.00 0.00 73 1012.6
20260906053019 13 80 0.0 0.0 0.00 0.00 0.00 71 1012.5
20260906051519 13 80 0.0 0.0 0.00 0.00 0.00 68 1012.6
20260906050019 14 80 0.0 0.0 0.00 0.00 0.00 66 1012.7
20260906044518 15 80 0.0 0.0 0.00 0.00 0.00 65 1012.9
20260906043028 16 80 0.0 0.0 0.00 0.00 0.00 61 1013.0
20260906041518 16 80 0.0 0.0 0.00 0.00 0.00 58 1013.0
20260906040017 17 80 0.0 0.0 0.00 0.00 0.00 56 1012.9
20260906034517 17 80 0.0 0.0 0.00 0.00 0.00 56 1012.9
20260906033023 16 80 0.0 0.0 0.00 0.00 0.00 58 1013.1
20260906031517 16 80 0.0 0.0 0.00 0.00 0.00 58 1013.0
20260906030021 16 80 0.0 0.0 0.00 0.00 0.00 59 1012.7
20260906024514 17 80 0.0 0.0 0.00 0.00 0.00 58 1012.4
20260906023015 17 80 0.0 0.0 0.00 0.00 0.00 56 1012.5
20260906021515 18 80 0.0 0.0 0.00 0.00 0.00 53 1012.5
20260906020014 18 79 0.0 0.0 0.00 0.00 0.00 51 1012.4
20260906014513 19 83 0.0 0.0 0.00 0.00 0.00 50 1012.6
20260906013016 20 83 0.0 0.0 0.00 0.00 0.00 48 1012.6
20260906011512 20 83 0.0 0.0 0.00 0.00 0.00 47 1012.5
20260906010012 20 83 0.0 0.0 0.00 0.00 0.00 46 1012.5
20260906004511 20 83 0.0 0.0 0.00 0.00 0.00 47 1012.4
20260906003010 20 84 0.0 0.0 0.00 0.00 0.00 46 1012.3
20260906001517 20 84 0.0 0.0 0.00 0.00 0.00 49 1012.3
20260906000030 20 84 0.0 0.0 0.00 0.00 0.00 47 1012.3
20260905234508 20 85 0.0 0.0 0.00 0.00 0.00 48 1012.4
20260905233009 20 85 0.0 0.0 0.00 0.00 0.00 48 1012.4
20260905231507 21 85 0.0 0.0 0.00 0.00 0.00 48 1012.2
20260905230006 20 85 0.0 0.0 0.00 0.00 0.00 48 1012.5
20260905224503 20 85 0.0 0.0 0.00 0.00 0.00 48 1012.7
20260905223100 19 85 0.0 0.0 0.00 0.00 0.00 47 1012.9
20260905221558 19 85 0.0 0.0 0.00 0.00 0.00 53 1013.1
20260905220059 18 91 0.0 0.0 0.00 0.00 0.00 55 1013.0
20260905214554 18 95 0.0 0.0 0.00 0.00 0.00 55 1013.2
20260905213054 17 109 0.0 0.0 0.00 0.00 0.00 58 1014.1
20260905211556 18 112 0.0 0.0 0.00 0.00 0.00 56 1013.5
20260905210108 18 127 0.0 0.0 0.00 0.00 0.00 52 1013.6
20260905204558 18 133 0.0 0.0 0.00 0.00 0.00 51 1013.7
20260905203053 18 133 0.0 0.0 0.00 0.00 0.00 51 1013.7
20260905201551 18 141 0.0 0.0 0.00 0.00 0.00 51 1013.8
20260905200049 17 154 0.0 0.0 0.00 0.00 0.00 53 1014.1
20260905194604 18 155 0.0 0.0 0.00 0.00 0.00 49 1014.0
20260905193048 18 156 0.0 0.0 0.00 0.00 0.00 51 1013.9
20260905191550 18 156 0.0 0.0 0.00 0.00 0.00 51 1013.9
20260905190042 17 155 0.0 0.0 0.00 0.00 0.00 54 1014.4
20260905184555 17 155 0.0 0.0 0.00 0.00 0.00 56 1014.4
20260905183046 16 136 0.0 0.0 0.00 0.00 0.00 58 1014.4
20260905181546 16 136 0.0 0.0 0.00 0.00 0.00 57 1014.6
20260905180036 16 136 0.0 0.0 0.00 0.00 0.00 58 1014.9
20260905174535 16 136 0.0 0.0 0.00 0.00 0.00 58 1014.9
20260905173033 15 136 0.0 0.0 0.00 0.00 0.00 63 1014.9
20260905171528 15 136 0.0 0.0 0.00 0.00 0.00 63 1014.9
20260905170026 15 132 0.0 0.0 0.00 0.00 0.00 70 1014.9
20260905164525 14 132 0.0 0.0 0.00 0.00 0.00 71 1014.7
20260905163018 13 132 0.0 0.0 0.00 0.00 0.00 74 1014.7
20260905161514 13 132 0.0 0.0 0.00 0.00 0.00 77 1014.6
20260905160019 12 125 0.0 0.0 0.00 0.00 0.00 79 1014.6